Location: ???? ?????????
(44.3677°N, 135.2344°E)
Time: 09:38:24
(UTC+00:00)

ISS - Pass Details

Date: 19 May 2025
Orbit: 415 x 417 km, 51.6° (Epoch: 12 June)

Event Time Altitude Azimuth Distance (km) Brightness Sun altitude
Rises 14:09:49 0° 298° (WNW) 2,358 0.6 -24.9°
Reaches altitude 10° 14:11:57 10° 292° (WNW) 1,492 -0.6 -25.0°
Enters shadow 14:12:40 15° 288° (WNW) 1,212 -1.1 -25.0°
